Lid_Strength_Index
8 8 6 7 6 7 8 7 7 7 7 7 7 7 8 9 9 10 10 9 9 9 9 8 8 7 7 7 6 6 6 6 7 6 5 5 5 5 4 3 2 3 3
7 8 7 8 8 8 8 7 7 7 7 7 8 9 9 9 9 9 9 8 9 9 8 7 7 5 7 6 7 7 7 7 7 8 6 6 6 5 4 4 2 1 3
8 8 9 8 8 8 8 8 8 8 8 9 9 9 9 8 8 8 8 8 8 7 7 7 7 7 8 7 7 8 8 6 8 8 8 7 7 6 5 5 4 3 2
8 8 8 8 8 8 8 8 8 9 10 10 9 9 8 7 7 7 7 7 7 6 6 6 6 7 8 8 8 8 7 8 8 7 8 7 7 6 7 6 6 6 5
8 8 8 8 8 8 9 9 9 9 9 9 8 8 7 7 6 7 6 7 7 7 6 6 6 6 3 3 5 6 7 6 6 6 7 7 7 7 7 6 6 5 5
8 8 8 8 8 9 10 9 9 9 9 8 7 7 7 5 2 2 3 6 6 7 8 8 7 5 6 4 3 3 4 6 6 6 6 7 6 6 5 6 6 7 8
9 9 9 9 10 9 9 9 9 8 7 7 7 6 6 6 2 2 2 5 8 9 8 8 8 7 6 7 5 3 3 3 3 5 6 6 6 6 6 7 6 6 6
10 10 10 9 9 9 9 8 8 7 7 7 6 6 6 5 3 3 4 8 8 8 7 8 8 8 7 6 6 6 6 6 5 5 5 6 6 5 5 5 5 5 4
10 10 9 9 9 8 8 7 7 7 7 6 6 6 7 7 4 4 5 8 7 7 7 8 8 7 5 3 5 6 7 6 3 2 2 2 1 1 2 3 5 6 7
9 9 9 9 9 8 7 6 6 6 6 5 6 6 5 8 5 5 6 8 8 9 8 7 5 6 4 3 5 6 7 7 5 6 5 4 3 4 2 4 5 7 7
9 9 8 8 8 7 7 6 6 6 6 7 6 8 9 9 9 6 6 8 8 8 8 8 7 4 4 3 3 5 5 5 5 5 5 5 5 5 5 4 4 5 6
9 8 8 9 8 7 7 7 6 7 7 8 10 10 9 10 7 7 6 6 6 7 7 7 7 4 4 4 4 4 3 4 6 6 7 7 7 6 5 4 4 5 5
9 9 9 9 9 9 9 9 9 9 10 11 10 11 10 9 9 8 7 7 6 7 7 6 5 5 5 6 5 5 5 7 8 9 8 8 6 5 6 6 5 4 5
9 9 10 10 10 10 10 10 11 11 11 11 11 11 11 10 10 10 9 9 7 7 7 7 7 6 6 7 7 7 8 8 8 7 7 7 7 7 6 5 6 6 6
9 10 10 10 10 11 11 11 11 11 10 10 11 11 11 11 10 8 8 9 9 8 7 9 10 9 10 10 9 9 8 8 7 7 7 7 7 7 7 6 6 6 7
10 10 10 11 11 12 12 12 8 8 8 9 9 10 10 9 8 8 8 8 7 7 9 11 11 11 11 10 10 10 9 8 7 8 7 7 7 8 8 8 8 8 8
10 10 11 11 12 12 12 13 14 11 10 9 9 9 9 9 9 9 8 8 8 9 12 12 12 11 11 10 10 10 10 8 8 8 8 8 7 7 8 8 8 8 8
8 8 12 13 12 13 13 13 12 13 13 13 11 10 10 9 9 9 9 9 12 11 12 12 11 11 10 10 10 10 10 9 8 8 8 8 8 8 8 8 8 8 8
9 11 12 13 13 12 13 14 12 12 13 13 12 11 11 10 10 9 9 13 13 12 12 11 11 11 10 10 10 9 10 9 8 8 8 8 8 8 8 8 8 7 7
11 9 10 13 13 13 13 12 13 13 14 13 14 13 12 12 13 13 12 12 12 11 11 11 11 10 10 10 10 9 10 9 8 8 8 8 8 8 9 8 8 8 7
11 12 10 13 13 13 12 13 13 14 14 14 13 12 11 12 13 13 13 12 12 11 11 10 10 10 10 10 10 10 10 9 8 8 8 8 8 9 8 7 7 7 6
12 12 13 13 12 12 12 13 14 14 14 14 13 13 11 13 13 13 13 12 11 10 10 10 10 10 10 10 10 10 10 9 8 8 8 8 8 8 8 8 8 7 7
12 12 13 13 12 12 13 14 14 14 14 13 14 14 13 13 13 12 12 11 11 10 9 9 9 9 9 9 9 9 10 10 8 7 8 8 8 8 8 8 8 7 7
12 12 13 13 13 13 14 14 14 13 13 13 14 13 14 13 13 12 11 11 10 10 9 9 9 9 9 9 9 9 9 9 7 7 7 8 8 8 8 8 8 8 7
11 12 12 13 14 13 13 14 14 14 13 13 13 13 13 13 12 12 11 11 10 10 9 9 9 9 9 9 9 9 8 8 7 6 7 7 8 8 8 8 7 7 7
11 11 12 13 12 13 13 14 14 13 13 13 13 13 13 12 12 11 11 10 10 9 8 8 9 9 9 9 9 9 8 8 6 6 6 7 7 8 7 7 7 7 7